Kapolei, HI

12:09 PM HST on February 09, 2016 (GMT -1000)
Kalaeloa (John Rodgers Field)

Weather History for PHJR - June, 2013

Change the Weather History Date:

Wednesday, June 5, 2013

  Actual Average (PHNL) Record (PHNL)
Temperature  
Mean Temperature 77 °F 80 °F  
Max Temperature 84 °F 86 °F 90 °F (1987)
Min Temperature 70 °F 73 °F 66 °F (1972)
Degree Days  
Heating Degree Days 0 0  
Month to date heating degree days 0  
Since 1 June heating degree days 0  
Since 1 July heating degree days 0  
Cooling Degree Days 12 15  
Month to date cooling degree days 72  
Year to date cooling degree days 1574  
Since 1 June cooling degree days 72  
Growing Degree Days 27 (Base 50)    
Moisture  
Dew Point 64 °F    
Average Humidity 66    
Maximum Humidity 79    
Minimum Humidity 47    
Precipitation  
Precipitation 0.01 in 0.01 in 0.99 in (2001)
Month to date precipitation 0.05  
Year to date precipitation 7.62  
Snow  
Snow 0.00 in - - ()
Month to date snowfall  
Since 1 June snowfall  
Since 1 July snowfall  
Snow Depth -    
Sea Level Pressure  
Sea Level Pressure 30.07 in    
Wind  
Wind Speed 5 mph (ENE)    
Max Wind Speed 12 mph    
Max Gust Speed 21 mph    
Visibility 10 miles    
Events Rain    
T = Trace of Precipitation, MM = Missing Value Source: NWS Daily Summary

Daily Weather History Graph

Daily Weather History Graph

Search for Another Location

Airport or City:

Trip Planner

Search our weather history database for the weather conditions in past years. The results will help you decide how hot, cold, wet, or windy it might be!

Date:

Astronomy

Jun. 05, 2013 Rise Set
Actual Time 5:49 AM HST 7:12 PM HST
Civil Twilight 5:24 AM HST 7:37 PM HST
Nautical Twilight 4:55 AM HST 8:06 PM HST
Astronomical Twilight 4:25 AM HST 8:36 PM HST
Moon 3:44 AM HST (6/5) 5:01 PM HST (6/5)
Length of Visible Light 14h 12m
Length of Day
13h 22m
Waning Crescent, 7% of the Moon is Illuminated
Jun 5
Waning Crescent
Jun 8
New
Jun 16
First Quarter
Jun 23
Full
Jun 29
Last Quarter

Hourly Weather History & Observations

Time (HST) Temp. Heat Index Dew Point Humidity Pressure Visibility Wind Dir Wind Speed Gust Speed Precip Events Conditions
12:53 AM 72.0 °F - 61.0 °F 68% 30.09 in 10.0 mi East 3.5 mph - N/A   Scattered Clouds
1:53 AM 72.0 °F - 62.1 °F 71% 30.07 in 10.0 mi ENE 4.6 mph - N/A   Clear
2:53 AM 70.0 °F - 62.1 °F 76% 30.07 in 10.0 mi ENE 3.5 mph - N/A   Clear
3:53 AM 70.0 °F - 63.0 °F 78% 30.06 in 10.0 mi ENE 4.6 mph - N/A   Partly Cloudy
4:53 AM 70.0 °F - 63.0 °F 78% 30.06 in 10.0 mi East 4.6 mph - N/A   Clear
5:53 AM 70.0 °F - 63.0 °F 78% 30.06 in 10.0 mi Variable 3.5 mph - N/A   Clear
6:53 AM 73.0 °F - 63.0 °F 71% 30.08 in 10.0 mi Variable 3.5 mph - N/A   Partly Cloudy
7:53 AM 77.0 °F - 64.0 °F 64% 30.09 in 10.0 mi Variable 5.8 mph - N/A   Clear
8:53 AM 79.0 °F - 63.0 °F 58% 30.09 in 10.0 mi ENE 9.2 mph 19.6 mph N/A   Clear
9:53 AM 81.0 °F 82.5 °F 64.0 °F 56% 30.10 in 10.0 mi ENE 9.2 mph 18.4 mph N/A   Clear
10:53 AM 81.0 °F 82.2 °F 63.0 °F 54% 30.09 in 10.0 mi East 10.4 mph 20.7 mph N/A   Scattered Clouds
11:53 AM 82.9 °F 83.7 °F 62.1 °F 49% 30.08 in 10.0 mi ENE 11.5 mph 19.6 mph N/A   Partly Cloudy
12:53 PM 84.0 °F 84.5 °F 62.1 °F 47% 30.07 in 10.0 mi ENE 8.1 mph 16.1 mph N/A   Scattered Clouds
1:53 PM 82.9 °F 84.4 °F 64.0 °F 53% 30.06 in 10.0 mi ENE 8.1 mph 17.3 mph N/A   Scattered Clouds
2:53 PM 82.0 °F 84.1 °F 66.0 °F 58% 30.04 in 10.0 mi ENE 8.1 mph 20.7 mph N/A   Clear
3:53 PM 81.0 °F 83.0 °F 66.0 °F 60% 30.03 in 10.0 mi East 9.2 mph 16.1 mph N/A   Scattered Clouds
4:53 PM 79.0 °F - 66.0 °F 64% 30.03 in 10.0 mi NNE 8.1 mph - N/A   Scattered Clouds
5:53 PM 75.0 °F - 68.0 °F 79% 30.04 in 10.0 mi Variable 3.5 mph - 0.01 in Rain Light Rain
6:53 PM 75.0 °F - 66.0 °F 73% 30.05 in 10.0 mi Variable 3.5 mph - 0.00 in   Mostly Cloudy
7:53 PM 73.9 °F - 64.0 °F 71% 30.06 in 10.0 mi Variable 4.6 mph - N/A   Mostly Cloudy
8:53 PM 73.0 °F - 64.9 °F 76% 30.08 in 10.0 mi Calm Calm - N/A   Scattered Clouds
9:00 PM 73.4 °F - 64.4 °F 73% 30.06 in 10.0 mi Variable 3.5 mph - N/A   Mostly Cloudy
9:53 PM 73.9 °F - 60.1 °F 62% 30.08 in 10.0 mi Variable 4.6 mph - N/A   Clear
10:53 PM 73.0 °F - 62.1 °F 68% 30.09 in 10.0 mi East 3.5 mph - N/A   Scattered Clouds
11:53 PM 72.0 °F - 62.1 °F 71% 30.08 in 10.0 mi East 6.9 mph - N/A   Partly Cloudy